Terminal Aerodrome Forecast
Issued by NWS Oklahoma City, OK

Home | Current Version | Previous Version | Text Only | Print | Product List | Glossary On
Versions: 1 2 3 4 5 6 7 8 9 10 11 12 13 14 15 16 17 18 19 20 21 22 23 24 25 26 27 28 29 30 31 32
000
FTUS44 KOUN 021721
TAFOUN
TAF
KOUN 021721Z 0218/0318 10017G20KT P6SM VCTS FEW015 SCT035CB BKN150
     FM022000 16017G22KT P6SM SCT050 SCT250
     FM030100 16011KT P6SM SCT250=

USA.gov is the U.S. government's official web portal to all federal, state and local government web resources and services.